sat.trackr.live / text

‹ back to catalog

OPTUS C1

NORAD 27831 · 2003-028B

PAYLOAD ACTIVE UNKNOWN

§ Identity

Operator
Country
AUS
Launch date
2003-06-11
Launch site
FRGUI
Launch vehicle
Mass (kg)
RCS (m²)
25.12

Purposes: comms

External: N2YO · Heavens-Above · Gunter

§ Orbital elements

Epoch: 2026-09-19T18:49:06.515616Z

Period
1,436.08 min
Inclination
7.1200°
Eccentricity
0.0005490
Mean motion
1.00272788 rev/d
Perigee alt
35,763.2 km
Apogee alt
35,809.5 km
Semi-major
42,164.5 km
B*
0.0000e+0
RAAN
68.2228°
Arg perigee
107.0437°
Mean anomaly
261.4749°
Rev number
5,401

§ Raw data

OPTUS C11 27831U 03028B   26262.78410319 -.00000153  00000+0  00000+0 0  99932 27831   7.1200  68.2228 0005490 107.0437 261.4749  1.00272788 54019

JSON: /api/v1/satellites/27831 · /tle

For live sub-satellite position, see the globe view (requires WebGL).

§ Visibility from observer

Set your observer location to see the next 7 days of passes ≥ 10°. The values pass through the URL so the page stays shareable.

No JS? Fill the form by hand. The geolocation button needs JavaScript.